RH
40 37 36 34 32 28 26 23 26 19 17 22 28 34 31 29 30 33 46 55 62 67 70 70 76 83 87 94 88 84 83 80 75 64 61 58 53 50 49 52 50 53 50 50
43 41 38 34 32 30 27 26 23 20 18 31 32 28 29 28 28 29 31 43 54 59 63 66 74 78 78 86 91 88 81 79 81 83 70 60 59 56 50 49 48 48 59 54
45 44 41 37 34 32 29 26 31 23 25 31 30 30 30 29 26 28 29 33 44 56 60 60 67 74 76 81 84 88 88 80 71 62 58 54 57 53 49 50 53 46 50 57
48 47 42 39 36 34 32 30 36 30 35 34 33 29 31 32 31 27 28 28 32 49 57 59 64 68 72 70 81 87 93 87 81 79 76 70 61 60 56 54 49 51 48 53
51 51 47 43 38 37 38 37 37 33 37 37 33 32 33 35 31 29 30 35 32 38 44 61 69 66 74 79 74 80 81 90 88 86 82 73 70 68 64 63 63 58 58 58
47 52 52 48 43 40 41 41 42 37 37 37 35 39 36 33 33 26 27 30 33 39 36 39 44 62 73 78 86 86 87 93 92 96 93 85 85 77 75 70 65 63 63 63
48 52 56 52 47 43 44 44 41 41 41 43 39 39 38 35 32 33 26 22 27 31 40 45 46 47 51 73 78 84 89 89 89 96 97 96 78 79 76 74 74 66 64 65
49 55 63 57 52 48 45 45 43 44 48 46 45 40 38 34 32 31 30 26 24 32 37 41 45 44 42 46 67 74 84 91 92 91 91 82 81 75 76 78 77 74 70 68
47 56 67 62 56 53 49 47 46 44 47 48 44 42 39 37 37 35 32 29 24 35 39 45 46 47 46 48 48 57 74 85 91 96 95 92 79 79 79 81 86 78 78 76
44 53 64 68 62 54 53 50 49 46 43 48 44 44 42 40 38 38 37 30 27 33 40 43 46 48 47 50 52 49 60 75 89 92 92 87 82 79 94 97 89 83 80 80
42 50 67 73 67 59 57 52 52 51 47 47 46 46 49 51 43 38 36 37 35 39 42 44 45 47 46 47 43 44 46 53 67 83 90 85 78 82 84 83 81 79 84 82
40 47 65 71 72 63 61 56 52 53 49 49 49 48 52 54 51 38 41 38 41 44 49 47 45 47 47 45 44 43 46 40 47 49 54 61 71 75 81 80 78 78 76 75
40 44 63 70 78 68 63 61 56 52 51 52 53 53 56 57 56 46 39 44 44 49 48 53 51 50 48 46 43 42 37 36 37 32 31 36 38 49 59 67 69 72 72 70
42 42 58 70 78 74 67 63 58 52 56 59 57 57 59 58 55 50 45 40 44 50 55 57 57 56 53 52 47 45 36 36 34 32 27 27 26 29 32 37 45 51 55 58
46 46 55 72 74 79 73 67 61 58 61 63 61 59 60 58 55 53 49 44 45 54 60 63 62 60 60 59 56 50 38 34 31 27 21 22 21 23 26 23 21 18 17 21
50 49 58 72 78 83 79 73 67 64 67 68 67 62 62 63 60 53 51 48 51 57 60 62 62 61 57 58 56 42 39 34 30 27 24 24 21 22 23 24 23 23 19 17
53 53 62 75 82 85 82 79 74 71 72 73 68 62 55 48 56 52 54 56 55 56 62 65 63 61 61 58 53 36 37 38 37 34 32 30 30 28 29 30 29 25 23 23
60 60 64 82 83 85 84 83 82 77 77 81 75 66 58 46 48 52 55 56 59 63 67 67 65 65 65 59 42 39 38 38 38 35 32 30 28 29 31 31 30 30 31 32
66 70 75 80 85 90 89 85 78 79 85 87 78 65 57 48 49 55 58 64 69 70 71 70 66 65 65 49 47 42 42 41 41 38 36 35 32 32 34 36 36 34 35 36
75 78 85 89 93 93 92 92 84 76 80 90 77 66 62 53 58 66 71 72 75 74 69 68 65 57 49 48 47 45 44 44 46 44 42 40 38 38 40 41 43 44 44 45
82 88 93 95 97 97 97 94 84 78 80 72 71 63 58 62 69 74 78 81 81 77 67 70 64 59 50 48 46 44 44 45 44 45 42 41 42 44 47 49 51 51 53 56
80 93 98 97 97 97 96 92 85 88 77 63 62 64 68 69 77 83 82 81 81 76 70 70 65 53 49 49 48 47 47 49 50 50 44 45 47 51 53 54 55 60 66 68
95 98 98 96 94 96 92 85 89 86 69 71 71 73 70 72 82 86 88 86 81 73 76 66 56 50 49 49 48 47 51 55 57 56 52 53 54 55 58 63 66 70 73 73
97 97 98 92 93 86 80 78 81 82 75 77 75 77 81 85 90 95 95 90 85 83 75 60 60 55 50 50 54 59 58 59 60 60 62 60 60 63 65 67 74 78 76 74
98 98 94 87 80 80 80 81 90 84 75 78 87 93 97 97 98 97 95 93 89 76 67 65 63 61 63 66 70 71 66 62 63 62 65 62 62 66 67 80 85 82 80 78
98 96 95 89 88 89 90 91 92 86 88 93 97 97 97 97 97 95 90 89 82 75 77 74 76 77 78 80 80 80 76 70 67 70 68 68 68 73 83 90 89 84 83 82
96 91 90 90 88 86 92 96 97 93 91 94 98 97 95 97 97 93 87 84 81 85 87 88 89 92 86 83 81 81 80 82 82 81 76 72 73 80 91 94 90 87 86 87